Weather History for KW22 - April, 2013

Change the Weather History Date:

Monday, April 8, 2013

  Actual Average (KEKN) Record (KEKN)
Temperature  
Mean Temperature 63 °F 48 °F  
Max Temperature 75 °F 60 °F 82 °F (1929)
Min Temperature 51 °F 35 °F 16 °F (1990)
Degree Days  
Heating Degree Days 2 18  
Month to date heating degree days 151  
Since 1 July heating degree days 5252  
Cooling Degree Days 0 0  
Month to date cooling degree days 0  
Year to date cooling degree days 0  
Growing Degree Days 13 (Base 50)    
Moisture  
Dew Point 43 °F    
Average Humidity 47    
Maximum Humidity 67    
Minimum Humidity 31    
Precipitation  
Precipitation 0.00 in 0.12 in 1.41 in (1902)
Month to date precipitation 1.01  
Year to date precipitation 11.30  
Snow  
Snow 0.00 in - - ()
Month to date snowfall  
Since 1 September snowfall  
Snow Depth -    
Sea Level Pressure  
Sea Level Pressure 30.03 in    
Wind  
Wind Speed 3 mph (SW)    
Max Wind Speed 24 mph    
Max Gust Speed 31 mph    
Visibility 10 miles    
Events      
T = Trace of Precipitation, MM = Missing Value Source: NWS Daily Summary

Daily Weather History Graph

Daily Weather History Graph

Search for Another Location

Airport or City:

Trip Planner

Search our weather history database for the weather conditions in past years. The results will help you decide how hot, cold, wet, or windy it might be!

Date:

Astronomy

Apr. 08, 2013 Rise Set
Actual Time 6:54 AM EDT 7:51 PM EDT
Civil Twilight 6:27 AM EDT 8:19 PM EDT
Nautical Twilight 5:55 AM EDT 8:51 PM EDT
Astronomical Twilight 5:21 AM EDT 9:25 PM EDT
Moon 5:43 AM EDT (4/8) 6:25 PM EDT (4/8)
Length of Visible Light 13h 51m
Length of Day
12h 57m
Waning Crescent, 3% of the Moon is Illuminated
Apr 8
Waning Crescent
Apr 10
New
Apr 18
First Quarter
Apr 25
Full
May 2
Last Quarter

Hourly Weather History & Observations

Time (EDT) Temp. Dew Point Humidity Pressure Visibility Wind Dir Wind Speed Gust Speed Precip Events Conditions
12:15 AM 60.8 °F 41.0 °F 48% 30.04 in 10.0 mi Calm Calm - N/A   Mostly Cloudy
12:35 AM 59.0 °F 41.0 °F 51% 30.04 in 10.0 mi Calm Calm - N/A   Mostly Cloudy
12:55 AM 59.0 °F 41.0 °F 51% 30.04 in 10.0 mi Calm Calm - N/A   Mostly Cloudy
1:15 AM 59.0 °F 42.8 °F 55% 30.05 in 10.0 mi Calm Calm - N/A   Overcast
1:35 AM 59.0 °F 41.0 °F 51% 30.05 in 10.0 mi Calm Calm - N/A   Mostly Cloudy
1:55 AM 59.0 °F 41.0 °F 51% 30.05 in 10.0 mi Calm Calm - N/A   Mostly Cloudy
2:15 AM 59.0 °F 41.0 °F 51% 30.05 in 10.0 mi Calm Calm - N/A   Mostly Cloudy
2:35 AM 55.4 °F 42.8 °F 63% 30.05 in 10.0 mi Calm Calm - N/A   Scattered Clouds
2:55 AM 57.2 °F 42.8 °F 59% 30.05 in 10.0 mi Calm Calm - N/A   Clear
3:15 AM 57.2 °F 42.8 °F 59% 30.05 in 10.0 mi Calm Calm - N/A   Clear
3:35 AM 55.4 °F 42.8 °F 63% 30.05 in 10.0 mi Calm Calm - N/A   Scattered Clouds
3:55 AM 55.4 °F 42.8 °F 63% 30.04 in 10.0 mi Calm Calm - N/A   Mostly Cloudy
4:15 AM 53.6 °F 42.8 °F 67% 30.04 in 10.0 mi Calm Calm - N/A   Overcast
4:35 AM 53.6 °F 42.8 °F 67% 30.04 in 10.0 mi Calm Calm - N/A   Overcast
4:55 AM 53.6 °F 42.8 °F 67% 30.05 in 10.0 mi Calm Calm - N/A   Overcast
5:15 AM 53.6 °F 42.8 °F 67% 30.05 in 10.0 mi Calm Calm - N/A   Scattered Clouds
5:35 AM 53.6 °F 42.8 °F 67% 30.05 in 10.0 mi Calm Calm - N/A   Clear
5:55 AM 53.6 °F 42.8 °F 67% 30.05 in 10.0 mi Calm Calm - N/A   Clear
6:15 AM 53.6 °F 41.0 °F 62% 30.05 in 10.0 mi Calm Calm - N/A   Clear
6:35 AM 53.6 °F 41.0 °F 62% 30.06 in 10.0 mi Calm Calm - N/A   Clear
6:55 AM 53.6 °F 39.2 °F 58% 30.06 in 10.0 mi Calm Calm - N/A   Clear
7:15 AM 53.6 °F 39.2 °F 58% 30.07 in 10.0 mi Calm Calm - N/A   Clear
7:35 AM 51.8 °F 39.2 °F 62% 30.08 in 10.0 mi Calm Calm - N/A   Clear
7:55 AM 53.6 °F 39.2 °F 58% 30.08 in 10.0 mi Calm Calm - N/A   Clear
8:15 AM 55.4 °F 42.8 °F 63% 30.09 in 10.0 mi Calm Calm - N/A   Scattered Clouds
8:35 AM 55.4 °F 39.2 °F 54% 30.09 in 10.0 mi Calm Calm - N/A   Scattered Clouds
8:55 AM 55.4 °F 41.0 °F 58% 30.08 in 10.0 mi Calm Calm - N/A   Clear
9:15 AM 59.0 °F 41.0 °F 51% 30.08 in 10.0 mi South 4.6 mph - N/A   Clear
9:35 AM 60.8 °F 42.8 °F 52% 30.08 in 10.0 mi Calm Calm - N/A   Clear
9:55 AM 64.4 °F 41.0 °F 42% 30.08 in 10.0 mi South 8.1 mph - N/A   Clear
10:15 AM 66.2 °F 41.0 °F 40% 30.08 in 10.0 mi SW 9.2 mph 16.1 mph N/A   Clear
10:35 AM 66.2 °F 41.0 °F 40% 30.07 in 10.0 mi South 9.2 mph 18.4 mph N/A   Clear
10:55 AM 66.2 °F 42.8 °F 43% 30.08 in 10.0 mi SW 9.2 mph 16.1 mph N/A   Clear
11:15 AM 69.8 °F 42.8 °F 38% 30.07 in 10.0 mi SSW 11.5 mph - N/A   Clear
11:35 AM 69.8 °F 42.8 °F 38% 30.06 in 10.0 mi SSW 16.1 mph 24.2 mph N/A   Scattered Clouds
11:55 AM 69.8 °F 44.6 °F 40% 30.06 in 10.0 mi SW 5.8 mph - N/A   Scattered Clouds
12:15 PM 71.6 °F 44.6 °F 38% 30.05 in 10.0 mi SSW 16.1 mph 25.3 mph N/A   Mostly Cloudy
12:35 PM 69.8 °F 44.6 °F 40% 30.05 in 8.0 mi WSW 17.3 mph 27.6 mph N/A   Mostly Cloudy
12:55 PM 69.8 °F 42.8 °F 38% 30.05 in 10.0 mi SW 21.9 mph 29.9 mph N/A   Mostly Cloudy
1:15 PM 73.4 °F 42.8 °F 33% 30.03 in 10.0 mi SW 24.2 mph 31.1 mph N/A   Partly Cloudy
1:35 PM 71.6 °F 42.8 °F 35% 30.02 in 10.0 mi SSW 13.8 mph 25.3 mph N/A   Scattered Clouds
1:55 PM 71.6 °F 42.8 °F 35% 30.02 in 10.0 mi SW 13.8 mph 25.3 mph N/A   Mostly Cloudy
2:15 PM 73.4 °F 42.8 °F 33% 30.01 in 10.0 mi SSW 19.6 mph 25.3 mph N/A   Partly Cloudy
2:35 PM 71.6 °F 42.8 °F 35% 30.01 in 10.0 mi SW 10.4 mph 20.7 mph N/A   Scattered Clouds
2:55 PM 73.4 °F 42.8 °F 33% 29.99 in 10.0 mi SW 12.7 mph 29.9 mph N/A   Scattered Clouds
3:15 PM 73.4 °F 42.8 °F 33% 29.99 in 10.0 mi SSW 12.7 mph 23.0 mph N/A   Scattered Clouds
3:35 PM 73.4 °F 42.8 °F 33% 29.98 in 10.0 mi SSW 13.8 mph 23.0 mph N/A   Mostly Cloudy
3:55 PM 73.4 °F 42.8 °F 33% 29.98 in 10.0 mi SW 10.4 mph 17.3 mph N/A   Mostly Cloudy
4:15 PM 73.4 °F 42.8 °F 33% 29.97 in 10.0 mi SSW 8.1 mph - N/A   Scattered Clouds
4:35 PM 73.4 °F 42.8 °F 33% 29.97 in 10.0 mi WSW 11.5 mph 19.6 mph N/A   Scattered Clouds
4:55 PM 73.4 °F 42.8 °F 33% 29.97 in 10.0 mi WSW 6.9 mph 19.6 mph N/A   Mostly Cloudy
5:15 PM 75.2 °F 42.8 °F 31% 29.97 in 10.0 mi Calm Calm - N/A   Scattered Clouds
5:35 PM 73.4 °F 42.8 °F 33% 29.97 in 10.0 mi WSW 9.2 mph 17.3 mph N/A   Partly Cloudy
5:55 PM 73.4 °F 42.8 °F 33% 29.97 in 10.0 mi WSW 13.8 mph - N/A   Scattered Clouds
6:15 PM 73.4 °F 42.8 °F 33% 29.98 in 10.0 mi WSW 8.1 mph - N/A   Mostly Cloudy
6:55 PM 71.6 °F 42.8 °F 35% 29.99 in 10.0 mi WSW 6.9 mph - N/A   Mostly Cloudy
7:15 PM 71.6 °F 42.8 °F 35% 29.98 in 10.0 mi Calm Calm - N/A   Mostly Cloudy
7:35 PM 71.6 °F 42.8 °F 35% 29.99 in 10.0 mi Calm Calm - N/A   Partly Cloudy
7:55 PM 71.6 °F 42.8 °F 35% 29.99 in 10.0 mi Calm Calm - N/A   Clear
8:15 PM 71.6 °F 42.8 °F 35% 30.00 in 10.0 mi Calm Calm - N/A   Partly Cloudy
8:35 PM 69.8 °F 42.8 °F 38% 30.01 in 10.0 mi Calm Calm - N/A   Scattered Clouds
8:55 PM 69.8 °F 42.8 °F 38% 30.01 in 10.0 mi Calm Calm - N/A   Clear
9:15 PM 69.8 °F 42.8 °F 38% 30.02 in 10.0 mi Calm Calm - N/A   Partly Cloudy
9:35 PM 69.8 °F 44.6 °F 40% 30.03 in 10.0 mi SSW 11.5 mph 16.1 mph N/A   Mostly Cloudy
9:55 PM 64.4 °F 48.2 °F 56% 30.03 in 7.0 mi SSW 11.5 mph 23.0 mph N/A   Mostly Cloudy
10:15 PM 64.4 °F 48.2 °F 56% 30.03 in 10.0 mi Calm Calm - N/A   Mostly Cloudy
10:35 PM 64.4 °F 48.2 °F 56% 30.04 in 10.0 mi Calm Calm - N/A   Scattered Clouds
10:55 PM 66.2 °F 46.4 °F 49% 30.04 in 10.0 mi Calm Calm - N/A   Mostly Cloudy
11:15 PM 66.2 °F 46.4 °F 49% 30.05 in 10.0 mi Calm Calm - N/A   Mostly Cloudy
11:35 PM 64.4 °F 48.2 °F 56% 30.05 in 10.0 mi Calm Calm - N/A   Mostly Cloudy
11:55 PM 64.4 °F 48.2 °F 56% 30.05 in 10.0 mi Calm Calm - N/A   Mostly Cloudy